Location: Diguira
(13.1838°N, 4.9109°W)
Time: 14:51:13
(UTC+00:00)

CSL-04 Rocket - Pass Details

Date: 18 September 2020
Orbit: 806 x 860 km, 98.9° (Epoch: 19 October)

Event Time Altitude Azimuth Distance (km) Brightness Sun altitude
Rises 19:57:33 0° 176° (S) 3,325 6.7 -24.9°
Reaches altitude 10° 19:59:55 10° 180° (S) 2,400 6.0 -25.5°
Maximum altitude 20:05:06 56° 258° (WSW) 970 4.2 -26.7°
Drops below altitude 10° 20:10:23 10° 336° (NNW) 2,434 6.5 -28.0°
Sets 20:12:48 0° 340° (NNW) 3,376 7.2 -28.6°
